Weather History for KDTN - July, 2013

Change the Weather History Date:

Monday, July 29, 2013

  Actual Average (KSHV) Record (KSHV)
Temperature  
Mean Temperature 83 °F 84 °F  
Max Temperature 91 °F 94 °F 105 °F (1930)
Min Temperature 75 °F 73 °F 63 °F (1994)
Degree Days  
Heating Degree Days 0 0  
Month to date heating degree days 0  
Since 1 June heating degree days 0  
Since 1 July heating degree days 0  
Cooling Degree Days 18 19  
Month to date cooling degree days 520  
Year to date cooling degree days 1362  
Since 1 June cooling degree days 964  
Growing Degree Days 33 (Base 50)    
Moisture  
Dew Point 71 °F    
Average Humidity 68    
Maximum Humidity 87    
Minimum Humidity 50    
Precipitation  
Precipitation 0.00 in 0.11 in 4.30 in (1972)
Month to date precipitation 3.44  
Year to date precipitation 31.05  
Snow  
Snow 0.00 in - - ()
Month to date snowfall  
Since 1 June snowfall  
Since 1 July snowfall  
Snow Depth -    
Sea Level Pressure  
Sea Level Pressure 30.03 in    
Wind  
Wind Speed 7 mph (SSE)    
Max Wind Speed 13 mph    
Max Gust Speed 22 mph    
Visibility 10 miles    
Events      
T = Trace of Precipitation, MM = Missing Value Source: NWS Daily Summary

Daily Weather History Graph

Daily Weather History Graph

Search for Another Location

Airport or City:

Trip Planner

Search our weather history database for the weather conditions in past years. The results will help you decide how hot, cold, wet, or windy it might be!

Date:

Astronomy

Jul. 29, 2013 Rise Set
Actual Time 6:27 AM CDT 8:15 PM CDT
Civil Twilight 6:00 AM CDT 8:41 PM CDT
Nautical Twilight 5:27 AM CDT 9:14 PM CDT
Astronomical Twilight 4:53 AM CDT 9:48 PM CDT
Moon 12:05 AM CDT (7/29) 1:40 PM CDT (7/29)
Length of Visible Light 14h 41m
Length of Day
13h 47m
Waning Gibbous, 50% of the Moon is Illuminated
Jul 29
Waning Gibbous
Jul 29
Last Quarter
Aug 6
New
Aug 14
First Quarter
Aug 20
Full

Hourly Weather History & Observations

Time (CDT) Temp. Heat Index Dew Point Humidity Pressure Visibility Wind Dir Wind Speed Gust Speed Precip Events Conditions
12:53 AM 78.1 °F - 70.0 °F 76% 29.99 in 10.0 mi SE 6.9 mph - N/A   Overcast
1:53 AM 78.1 °F - 70.0 °F 76% 29.99 in 10.0 mi ESE 5.8 mph - N/A   Mostly Cloudy
2:53 AM 77.0 °F - 70.0 °F 79% 29.99 in 10.0 mi SE 4.6 mph - N/A   Scattered Clouds
3:53 AM 77.0 °F - 71.1 °F 82% 29.99 in 10.0 mi SE 3.5 mph - N/A   Overcast
4:53 AM 75.0 °F - 71.1 °F 87% 30.00 in 10.0 mi SE 4.6 mph - N/A   Partly Cloudy
5:53 AM 75.0 °F - 71.1 °F 87% 30.02 in 10.0 mi SE 4.6 mph - N/A   Clear
6:53 AM 75.9 °F - 72.0 °F 87% 30.04 in 9.0 mi SE 5.8 mph - N/A   Overcast
7:53 AM 78.1 °F - 73.0 °F 84% 30.06 in 9.0 mi SSE 4.6 mph - N/A   Scattered Clouds
8:53 AM 81.0 °F 86.2 °F 73.9 °F 79% 30.06 in 10.0 mi South 6.9 mph - N/A   Mostly Cloudy
9:01 AM 80.6 °F 85.4 °F 73.4 °F 79% 30.07 in 10.0 mi South 8.1 mph - N/A   Mostly Cloudy
9:16 AM 82.4 °F 88.2 °F 73.4 °F 74% 30.07 in 10.0 mi South 9.2 mph - N/A   Scattered Clouds
9:35 AM 82.4 °F 88.2 °F 73.4 °F 74% 30.07 in 10.0 mi South 10.4 mph - N/A   Mostly Cloudy
9:53 AM 82.9 °F 89.4 °F 73.9 °F 74% 30.07 in 10.0 mi South 9.2 mph - N/A   Mostly Cloudy
10:37 AM 84.2 °F 90.9 °F 73.4 °F 70% 30.07 in 10.0 mi South 5.8 mph - N/A   Scattered Clouds
10:53 AM 87.1 °F 95.4 °F 73.9 °F 65% 30.06 in 10.0 mi South 10.4 mph - N/A   Mostly Cloudy
11:53 AM 86.0 °F 92.2 °F 72.0 °F 63% 30.06 in 10.0 mi South 9.2 mph - N/A   Mostly Cloudy
12:53 PM 90.0 °F 96.4 °F 71.1 °F 54% 30.05 in 10.0 mi South 6.9 mph - N/A   Scattered Clouds
1:53 PM 90.0 °F 95.4 °F 70.0 °F 52% 30.04 in 10.0 mi SSE 6.9 mph - N/A   Mostly Cloudy
2:53 PM 90.0 °F 94.5 °F 69.1 °F 50% 30.02 in 10.0 mi South 5.8 mph - N/A   Scattered Clouds
3:53 PM 91.0 °F 96.6 °F 70.0 °F 50% 30.01 in 10.0 mi SSE 9.2 mph - N/A   Scattered Clouds
4:53 PM 91.9 °F 98.4 °F 71.1 °F 50% 30.01 in 10.0 mi SE 12.7 mph 17.3 mph N/A   Scattered Clouds
5:53 PM 91.0 °F 97.6 °F 71.1 °F 52% 30.00 in 10.0 mi SE 10.4 mph - N/A   Clear
6:53 PM 90.0 °F 95.4 °F 70.0 °F 52% 29.99 in 10.0 mi SE 11.5 mph - N/A   Clear
7:53 PM 88.0 °F 92.9 °F 70.0 °F 55% 29.99 in 10.0 mi ESE 8.1 mph - N/A   Clear
8:53 PM 86.0 °F 91.5 °F 71.1 °F 61% 30.01 in 10.0 mi SE 6.9 mph - N/A   Clear
9:53 PM 84.0 °F 89.0 °F 71.1 °F 65% 30.02 in 10.0 mi SE 6.9 mph - N/A   Clear
10:53 PM 82.9 °F 88.0 °F 72.0 °F 69% 30.03 in 10.0 mi SSE 9.2 mph - N/A   Clear
11:53 PM 84.0 °F 87.8 °F 69.1 °F 61% 30.04 in 10.0 mi South 10.4 mph 21.9 mph N/A   Clear